www.pogodaiklimat.ru

Погода и климат >> Архив погоды >> Австралия >> Южная Австралия >> Мумба


ПОГОДА в Мумбе

  • Прогноз погоды в Мумбе
  • Монитор погоды в Мумбе

АРХИВ ПОГОДЫ в Мумбе

Время (UTC), дата Ветер
(напр.,м/с)
 
Видим.   Явления Облачность Т
(С)
Тd
(С)
f
(%)
Тe
(С)
Тes
(С)
Комфортность P
(гПа)
Po
(гПа)
Тmin
(С)
Tmax
(С)
R
(мм)
R24
(мм)
S
(см)
07 9.07 ЮЗ 4 н/о н/о +19.3 +5.7 41 +20 +20 1020.0 1015.4
08 9.07 ЮЗ 3 н/о н/о +17.8 +5.7 45 +18 +18 1020.2 1015.6
09 9.07 ЮЗ 2 н/о н/о +15.5 +4.6 48 +16 +16 1020.9 1016.2
10 9.07 Ю 2 н/о н/о +14.5 +4.5 51 +14 +14 1021.3 1016.6
11 9.07 Ю 2 н/о н/о +12.9 +3.8 54 +12 +12 1021.4 1016.7
12 9.07 ЮЗ 2 н/о н/о +11.8 +3.6 57 +11 +11 1021.4 1016.7
13 9.07 ЮЗ 2 н/о н/о +11.0 +3.3 59 +10 +10 1021.4 1016.7
14 9.07 Ю 1 н/о н/о +10.3 +3.1 61 +10 +10 1020.6 1016.0 +20.2
15 9.07 штиль 0 н/о н/о +9.1 +2.2 62 +9 +9 1020.5 1015.9
16 9.07 штиль 0 н/о н/о +7.5 +0.5 61 +7 +7 1020.5 1015.9
17 9.07 СВ 1 н/о н/о +7.4 +0.6 62 +8 +8 1020.0 1015.4
18 9.07 С 3 н/о н/о +6.5 +1.0 68 +4 +4 1020.0 1015.4
19 9.07 СВ 4 н/о н/о +6.8 +2.3 73 +4 +4 1019.5 1014.9
20 9.07 С 4 н/о н/о +6.7 +2.2 73 +3 +3 1019.5 1014.9
21 9.07 С 4 н/о н/о +7.5 +3.0 73 +4 +4 1019.8 1015.2
22 9.07 З 2 н/о н/о +7.3 +2.2 70 +5 +5 1020.5 1015.9
23 9.07 С 3 н/о н/о +10.7 +3.3 60 +9 +9 1021.1 1016.4
00 10.07 С 4 н/о н/о +14.0 +3.8 50 +13 +13 1021.6 1016.9
01 10.07 С 4 н/о н/о +16.9 +4.9 45 +16 +16 1021.5 1016.8
02 10.07 СЗ 6 н/о 1/0
[]
+18.9 +5.4 41 +19 +19 1020.8 1016.1 +6.2
03 10.07 СЗ 7 н/о н/о +20.3 +3.5 33 +20 +20 1019.6 1015.0
04 10.07 СЗ 7 н/о н/о +22.0 +0.5 24 +21 +21 комфорт 1018.5 1013.9
05 10.07 СЗ 7 н/о н/о +23.0 -0.5 21 +22 +22 комфорт 1017.8 1013.2
06 10.07 СЗ 7 н/о н/о +23.0 -1.1 20 +22 +22 комфорт 1017.4 1012.8
07 10.07 СЗ 6 н/о н/о +22.9 -1.9 19 +22 +22 комфорт 1017.4 1012.8
08 10.07 СЗ 5 н/о н/о +20.9 -2.2 21 +21 +21 комфорт 1017.7 1013.1
09 10.07 СЗ 5 н/о н/о +18.8 -2.2 24 +18 +18 1018.3 1013.7
10 10.07 СЗ 5 н/о н/о +17.6 -2.1 26 +17 +17 1018.8 1014.2
11 10.07 С 5 н/о н/о +15.4 -2.5 29 +14 +14 1018.9 1014.3
12 10.07 С 5 н/о н/о +14.7 -2.7 30 +13 +13 1019.1 1014.5
13 10.07 С 6 н/о н/о +14.6 -2.3 31 +13 +13 1019.1 1014.5
14 10.07 С 6 н/о н/о +13.4 -2.5 33 +12 +12 1018.9 1014.3 +23.5
15 10.07 С 6 н/о н/о +13.5 -2.4 33 +12 +12 1018.8 1014.2
16 10.07 СЗ 6 н/о н/о +13.0 -2.5 34 +11 +11 1018.8 1014.2
17 10.07 З 5 н/о н/о +11.4 -2.8 37 +9 +9 1019.0 1014.4
18 10.07 З 4 н/о н/о +10.3 -2.7 40 +8 +8 1019.1 1014.5
19 10.07 З 5 н/о н/о +9.9 -2.4 42 +7 +7 1019.3 1014.7
20 10.07 З 5 н/о н/о +9.4 -1.9 45 +7 +7 1020.1 1015.5
21 10.07 З 5 н/о н/о +9.3 -1.4 47 +7 +7 1021.1 1016.4
22 10.07 СЗ 4 н/о н/о +9.6 -1.1 47 +7 +7 1022.0 1017.3
23 10.07 З 3 н/о н/о +11.9 +0.4 45 +11 +11 1022.9 1018.2
00 11.07 З 5 н/о н/о +14.2 +3.4 48 +13 +13 1023.6 1018.9
01 11.07 З 6 н/о н/о +16.8 +6.3 50 +16 +16 1023.5 1018.8
02 11.07 ЮЗ 6 н/о н/о +18.1 +6.9 48 +18 +18 1023.2 1018.5 +8.8
03 11.07 ЮЗ 6 н/о н/о +19.0 +7.4 47 +19 +19 1022.4 1017.7
04 11.07 ЮЗ 6 н/о н/о +19.9 +7.9 46 +21 +21 комфорт 1021.8 1017.1
05 11.07 З 5 н/о н/о +19.9 +7.6 45 +21 +21 комфорт 1021.7 1017.0
06 11.07 З 6 н/о н/о +20.5 +7.5 43 +21 +21 комфорт 1021.6 1016.9
07 11.07 З 6 н/о н/о +20.2 +7.2 43 +21 +21 комфорт 1021.6 1016.9
08 11.07 З 4 н/о н/о +18.5 +7.0 47 +19 +19 1021.7 1017.0
09 11.07 З 4 н/о н/о +16.7 +6.8 52 +16 +16 1022.2 1017.5
10 11.07 З 3 н/о н/о +15.4 +6.4 55 +15 +15 1022.8 1018.1
11 11.07 З 4 н/о н/о +13.8 +5.7 58 +13 +13 1023.1 1018.4
12 11.07 З 3 н/о н/о +12.2 +5.1 62 +11 +11 1023.2 1018.5
13 11.07 З 4 н/о н/о +12.5 +6.1 65 +11 +11 1023.3 1018.6
14 11.07 З 4 н/о н/о +11.8 +6.3 69 +10 +10 1023.1 1018.4 +20.9
15 11.07 З 4 н/о н/о +10.9 +6.3 73 +9 +9 1022.8 1018.1
16 11.07 З 4 н/о н/о +11.0 +6.9 76 +9 +9 1022.5 1017.8
17 11.07 З 4 н/о н/о +10.3 +7.0 80 +8 +8 1022.5 1017.8
18 11.07 СЗ 4 н/о н/о +8.6 +5.9 83 +6 +6 1022.7 1018.0
19 11.07 СЗ 5 н/о н/о +9.2 +6.6 84 +6 +6 1022.7 1018.0
20 11.07 СЗ 2 н/о н/о +8.8 +6.6 86 +7 +7 1022.8 1018.1
21 11.07 З 4 н/о н/о +7.0 +5.2 88 +4 +4 1022.9 1018.2
22 11.07 З 3 н/о н/о +7.5 +5.6 88 +5 +5 1023.3 1018.6
23 11.07 З 2 н/о н/о +10.3 +6.6 78 +9 +9 1024.0 1019.3
00 12.07 З 4 н/о н/о +13.8 +8.2 69 +12 +12 1024.5 1019.8
01 12.07 З 3 н/о н/о +16.5 +7.7 56 +16 +16 1024.5 1019.8
02 12.07 З 4 н/о н/о +17.9 +7.3 50 +18 +18 1023.7 1019.0 +6.9
03 12.07 З 6 н/о н/о +19.4 +6.8 44 +20 +20 1022.7 1018.0
04 12.07 З 6 н/о н/о +20.3 +7.0 42 +21 +21 комфорт 1021.5 1016.8
05 12.07 З 7 н/о н/о +20.1 +5.7 39 +20 +20 1020.6 1016.0
06 12.07 З 7 н/о н/о +20.1 +6.1 40 +20 +20 1020.4 1015.8
07 12.07 З 7 н/о н/о +19.3 +5.7 41 +19 +19 1020.3 1015.7
08 12.07 З 5 н/о н/о +18.2 +5.8 44 +18 +18 1020.5 1015.9
09 12.07 З 4 н/о н/о +16.4 +5.7 49 +16 +16 1021.0 1016.3
10 12.07 З 3 н/о н/о +15.5 +5.4 51 +15 +15 1021.7 1017.0
11 12.07 СЗ 4 н/о 1/0
[]
+14.9 +5.4 53 +14 +14 1022.3 1017.6
12 12.07 СЗ 5 н/о н/о +14.0 +5.1 55 +13 +13 1022.3 1017.6
13 12.07 З 5 н/о н/о +13.8 +5.7 58 +12 +12 1022.6 1017.9
14 12.07 З 4 н/о 4/0
[]
+12.3 +5.0 61 +11 +11 1022.5 1017.8 +20.8
15 12.07 З 3 н/о н/о +11.5 +4.9 64 +10 +10 1022.4 1017.7
16 12.07 З 4 н/о н/о +11.9 +5.3 64 +10 +10 1022.4 1017.7
17 12.07 ЮЗ 4 н/о 9/0
[]
+12.5 +5.4 62 +11 +11 1022.0 1017.3
18 12.07 ЮЗ 7 н/о н/о +12.7 +5.6 62 +10 +10 1022.4 1017.7
19 12.07 ЮЗ 5 н/о н/о +11.9 +6.0 67 +10 +10 1023.1 1018.4
20 12.07 ЮЗ 5 н/о 10/0
[]
+11.5 +6.0 69 +9 +9 1023.5 1018.8
21 12.07 ЮЗ 7 н/о н/о +11.8 +7.1 73 +9 +9 1024.6 1019.9
22 12.07 ЮЗ 6 н/о н/о +11.1 +6.8 75 +8 +8 1025.8 1021.1
23 12.07 ЮЗ 7 н/о 8/8 1000 м
[]
+12.3 +7.4 72 +9 +9 1027.0 1022.3
00 13.07 Ю 6 н/о н/о +12.9 +6.7 66 +11 +11 1027.9 1023.2
01 13.07 Ю 8 н/о н/о +14.4 +2.6 45 +12 +12 1028.2 1023.5
02 13.07 Ю 8 н/о н/о +15.5 +1.3 38 +14 +14 1028.0 1023.3 +11.1
03 13.07 Ю 8 н/о н/о +15.5 -0.3 34 +14 +14 1027.3 1022.6
04 13.07 Ю 8 н/о н/о +16.1 -2.9 27 +15 +15 1026.6 1021.9
05 13.07 Ю 7 н/о н/о +15.9 +0.1 34 +15 +15 1026.5 1021.8
06 13.07 Ю 7 н/о н/о +15.6 -0.2 34 +14 +14 1026.7 1022.0
07 13.07 Ю 7 н/о н/о +15.2 -0.5 34 +14 +14 1027.5 1022.8
08 13.07 Ю 7 н/о н/о +14.2 -1.4 34 +12 +12 1027.8 1023.1
09 13.07 Ю 3 н/о н/о +12.6 -1.7 37 +12 +12 1028.6 1023.9
10 13.07 Ю 5 н/о н/о +12.3 -2.0 37 +10 +10 1029.1 1024.4
11 13.07 Ю 5 н/о н/о +11.0 -1.4 42 +9 +9 1029.6 1024.9
12 13.07 Ю 4 н/о н/о +10.3 -1.1 45 +8 +8 1030.2 1025.5
13 13.07 Ю 3 н/о н/о +8.6 -1.2 50 +7 +7 1030.4 1025.7
14 13.07 Ю 3 н/о н/о +8.6 -0.7 52 +7 +7 1030.2 1025.5 +16.6
15 13.07 Ю 4 н/о н/о +9.3 -0.8 49 +7 +7 1029.9 1025.2
17 13.07 Ю 4 н/о н/о +6.9 -0.5 59 +4 +4 1029.8 1025.1
18 13.07 Ю 4 н/о н/о +6.7 +0.4 64 +3 +3 1030.0 1025.3
19 13.07 Ю 4 н/о н/о +5.8 +0.6 69 +2 +2 1030.2 1025.5
20 13.07 Ю 4 н/о н/о +5.3 +0.7 72 +1 +1 1030.5 1025.8
21 13.07 Ю 5 н/о н/о +4.8 +0.8 75 0 0 1031.0 1026.3
22 13.07 Ю 5 н/о н/о +4.9 +0.7 74 +1 +1 1031.7 1027.0
23 13.07 Ю 5 н/о н/о +6.9 +1.4 68 +3 +3 1032.4 1027.7
00 14.07 Ю 5 н/о н/о +9.9 +1.5 56 +7 +7 1033.0 1028.3
01 14.07 ЮВ 5 н/о н/о +12.3 +1.6 48 +10 +10 1033.2 1028.5
02 14.07 ЮВ 5 н/о н/о +13.9 +1.5 43 +12 +12 1032.4 1027.7 +4.6
03 14.07 Ю 5 н/о н/о +14.6 +0.8 39 +13 +13 1031.4 1026.7
04 14.07 Ю 4 н/о н/о +15.2 +0.6 37 +14 +14 1030.3 1025.6
05 14.07 Ю 4 н/о н/о +15.3 -0.1 35 +14 +14 1029.4 1024.7
06 14.07 Ю 4 н/о н/о +15.2 -0.5 34 +15 +15 1029.1 1024.4
07 14.07 Ю 4 н/о н/о +15.3 +0.3 36 +14 +14 1029.0 1024.3
08 14.07 Ю 4 н/о н/о +14.0 -0.1 38 +13 +13 1029.2 1024.5
09 14.07 Ю 3 н/о н/о +11.8 0.0 44 +11 +11 1029.5 1024.8
10 14.07 Ю 3 н/о н/о +10.6 -0.5 46 +9 +9 1030.0 1025.3
11 14.07 Ю 4 н/о н/о +9.9 -0.9 47 +8 +8 1030.4 1025.7
12 14.07 Ю 3 н/о н/о +9.1 -0.5 51 +7 +7 1030.2 1025.5
13 14.07 Ю 3 н/о н/о +7.1 -1.8 53 +5 +5 1030.1 1025.4
14 14.07 Ю 3 н/о н/о +6.2 -1.9 56 +4 +4 1029.6 1024.9 +16.0
15 14.07 ЮЗ 3 н/о н/о +6.1 -1.8 57 +4 +4 1029.0 1024.3
16 14.07 ЮЗ 2 н/о н/о +5.7 -1.2 61 +4 +4 1028.7 1024.0
17 14.07 ЮЗ 2 н/о н/о +4.8 -1.4 64 +2 +2 1028.6 1023.9
18 14.07 ЮЗ 2 н/о н/о +3.9 -2.3 64 +1 +1 1028.8 1024.1
19 14.07 Ю 2 н/о н/о +4.9 -0.3 69 +3 +3 1028.7 1024.0
20 14.07 ЮЗ 2 н/о н/о +4.1 -0.5 72 +2 +2 1028.9 1024.2
21 14.07 Ю 2 н/о н/о +3.1 -0.9 75 +1 +1 1029.5 1024.8
22 14.07 Ю 2 н/о н/о +3.7 -0.5 74 +2 +2 1030.0 1025.3
23 14.07 Ю 2 н/о н/о +5.9 +0.5 68 +4 +4 1030.3 1025.6
00 15.07 Ю 4 н/о н/о +9.6 +3.1 64 +7 +7 1031.1 1026.4
01 15.07 Ю 6 н/о н/о +12.4 +4.1 57 +10 +10 1031.0 1026.3
02 15.07 Ю 7 н/о н/о +13.9 +4.2 52 +12 +12 1030.4 1025.7 +2.9
03 15.07 Ю 5 н/о н/о +14.8 +3.9 48 +13 +13 1029.2 1024.5
04 15.07 Ю 5 н/о н/о +15.8 +4.2 46 +15 +15 1027.9 1023.2
05 15.07 ЮЗ 6 н/о н/о +16.5 +4.2 44 +16 +16 1027.0 1022.3
06 15.07 Ю 6 н/о н/о +16.5 +4.2 44 +15 +15 1026.7 1022.0
07 15.07 Ю 5 н/о н/о +16.4 +4.4 45 +16 +16 1026.6 1021.9
08 15.07 Ю 6 н/о н/о +15.5 +4.6 48 +14 +14 1027.0 1022.3
09 15.07 Ю 4 н/о н/о +14.1 +4.4 52 +13 +13 1027.5 1022.8
10 15.07 Ю 4 н/о н/о +12.8 +4.0 55 +11 +11 1027.5 1022.8
11 15.07 Ю 5 н/о н/о +12.4 +4.6 59 +10 +10 1027.5 1022.8
12 15.07 Ю 5 н/о н/о +12.2 +4.9 61 +10 +10 1027.5 1022.8
13 15.07 Ю 7 н/о н/о +12.2 +5.1 62 +10 +10 1027.3 1022.6
14 15.07 Ю 5 н/о н/о +10.8 +4.9 67 +8 +8 1027.4 1022.7 +16.9
15 15.07 Ю 3 н/о н/о +9.6 +4.6 71 +7 +7 1027.1 1022.4
16 15.07 Ю 5 н/о н/о +9.8 +5.2 73 +7 +7 1026.7 1022.0
17 15.07 ЮВ 5 н/о н/о +11.0 +5.7 70 +8 +8 1026.9 1022.2
18 15.07 Ю 4 н/о н/о +9.1 +4.9 75 +6 +6 1027.1 1022.4
19 15.07 Ю 4 н/о н/о +7.6 +4.6 81 +4 +4 1027.2 1022.5
20 15.07 ЮВ 5 н/о н/о +9.1 +5.7 79 +6 +6 1027.3 1022.6
21 15.07 Ю 3 н/о н/о +5.6 +3.4 86 +2 +2 1027.9 1023.2
22 15.07 Ю 4 н/о н/о +7.0 +4.5 84 +4 +4 1028.5 1023.8
00 16.07 ЮВ 5 н/о н/о +12.2 +5.8 65 +10 +10 1029.6 1024.9
01 16.07 ЮВ 6 н/о н/о +14.1 +6.0 58 +12 +12 1029.3 1024.6
02 16.07 ЮВ 5 н/о н/о +15.0 +6.0 55 +14 +14 1028.3 1023.6 +5.4
03 16.07 ЮВ 4 н/о н/о +16.1 +6.3 52 +15 +15 1027.3 1022.6
04 16.07 ЮВ 5 н/о н/о +16.8 +6.0 49 +16 +16 1026.1 1021.4
05 16.07 Ю 5 н/о н/о +17.3 +6.2 48 +17 +17 1025.6 1020.9
06 16.07 Ю 5 н/о н/о +17.8 +6.3 47 +17 +17 1025.4 1020.7
07 16.07 Ю 5 н/о н/о +17.6 +6.5 48 +17 +17 1025.3 1020.6

 

Местоположение метеостанции Мумба (Южная Австралия, Австралия): широта -28.10 долгота 140.20 высота над уровнем моря 38 м.

В архиве по умолчанию представлена погода в Мумбе за последнюю неделю. Архивные данные за месяц целиком и за предыдущие месяцы, начиная с января 2011 года, Вы можете получить, выбрав интересующий диапазон дат из раскрывающегося списка и нажав кнопку "Ввод!".


*Определитесь, кто Вы:
робот инопланетянин человек

Внимание! Время в таблицах - всемирное. Для получения местного времени необходимо прибавить поправку, которая равна 9.5 ч.

Смотрите также архив погоды в соседних городах и на ближайших метеорологических станциях:

Погода в Месторождении Ballera (Квинсленд, Австралия) (176 км)
Погода в Тибообере (Новый Южный Уэльс, Австралия) (235 км)
Погода в Бердсвилле (Квинсленд, Австралия) (259 км)
Погода в Марри (Южная Австралия, Австралия) (271 км)
Погода в Ли-Крике (Южная Австралия, Австралия) (327 км)
Погода в Таргоминде (Квинсленд, Австралия) (355 км)
Погода в Фоулерс Гэп (Новый Южный Уэльс, Австралия) (362 км)
Погода в Уафт Клифс (Новый Южный Уэльс, Австралия) (413 км)
Погода в Олимпик Дэм (Южная Австралия, Австралия) (417 км)
Погода в Брокен-Хилл аэропорту (Новый Южный Уэльс, Австралия) (450 км)

Пояснения к столбцам:

Ветер - указаны скорость ветра в м/с - средняя за 10 мин, порывы в срок и между сроками (в фигурных скобках) и направление, откуда дует ветер: С - северный, СВ - северо-восточный, В - восточный, ЮВ - юго-восточный, Ю - южный, ЮЗ - юго-западный, З - западный, СЗ - северо-западный.
Видимость - горизонтальная дальность видимости в метрах или километрах. При видимости от 1 до 10 км при отсутствии осадков обычно наблюдается дымка, при ухудшении видимости до 1 км и менее - туман. В сухую погоду видимость может ухудшаться дымом, пылью или мглою.
Явления - указаны атмосферные явления, наблюдавшиеся в срок или в последний час перед сроком; фигурными скобками обозначены явления, наблюдавшиеся между сроками (за 1-3 часа до срока); квадратными скобками обозначены град или гололедные отложения с указанием их диаметра в мм.
Облачность - указаны через наклонную черту общая и нижняя облачность в баллах и высота нижней границы облаков в метрах; квадратными скобками обозначены формы облаков: Ci - перистые, Cs - перисто-слоистые, Cc - перисто-кучевые, Ac - высококучевые, As - высокослоистые, Sc - слоисто-кучевые, Ns - слоисто-дождевые, Cu - кучевые, Cb - кучево-дождевые. Подробнее классификацию облаков см. в Атласе облаков (PDF).
T - Температура воздуха - температура, измеренная на высоте 2 м над землей.
Td - Температура точки росы - температура, при понижении до которой содержащийся в воздухе водяной пар достигнет насыщения.
f - Относительная влажность воздуха - влажноcть воздуха, измеренная на высоте 2 м над землей.
Te - Эффективная температура - температура, которую ощущает одетый по сезону человек в тени. Характеристика душности погоды. При расчете учитывается влияние влажности воздуха и скорости ветра на теплоощущения человека.
Tes - Эффективная температура на солнце - температура, которую ощущает человек, с поправкой на солнечный нагрев. Характеристика знойности погоды. Зависит от высоты солнца над горизонтом, облачности и скорости ветра. Ночью, в пасмурную погоду, а также при ветре 12 м/с и более поправка равна нулю.
P - Атмосферное давление - приведенное к уровню моря атмосферное давление.
Po - Атмосферное давление - измеренное на уровне метеостанции атмосферное давление.
Tmin - Минимальная температура - минимум температуры воздуха на высоте 2 м над землей.
Tmax - Максимальная температура - максимум температуры воздуха на высоте 2 м над землей.
R - Количество осадков - Количество выпавших осадков за период времени, мм. При наведении курсора мыши на число - период времени, за который выпало указанное количество осадков.
R24 - Количество осадков - Количество выпавших осадков за 24 часа, мм.
S - Снежный покров - Высота снежного покрова, см. При наведении курсора мыши на число - состояние снежного покрова и степень покрытия местности в баллах.